Météo par heure à Al-Jadida

Ce jour, 27 Octobre, Mardi

Heure Température Précipitation Vent Pression Humidité
00:00 +16°C° 0 mm 6 m/s 765 mmHg 77%
01:00 +16°C° 0 mm 6 m/s 765 mmHg 77%
02:00 +16°C° 0 mm 6 m/s 764 mmHg 77%
03:00 +16°C° 0 mm 6 m/s 765 mmHg 77%
04:00 +15°C° 0 mm 5 m/s 765 mmHg 76%
05:00 +15°C° 0 mm 5 m/s 765 mmHg 75%
06:00 +16°C° 0 mm 5 m/s 765 mmHg 70%
07:00 +17°C° 0 mm 5 m/s 765 mmHg 65%
08:00 +19°C° 0 mm 5 m/s 765 mmHg 59%
09:00 +20°C° 0 mm 5 m/s 765 mmHg 55%
10:00 +21°C° 0 mm 6 m/s 765 mmHg 52%
11:00 +22°C° 0 mm 6 m/s 765 mmHg 48%
12:00 +22°C° 0 mm 6 m/s 764 mmHg 48%
13:00 +21°C° 0 mm 7 m/s 764 mmHg 49%
14:00 +21°C° 0 mm 7 m/s 763 mmHg 49%
15:00 +21°C° 0 mm 7 m/s 764 mmHg 55%
16:00 +20°C° 0 mm 7 m/s 764 mmHg 60%
17:00 +19°C° 0 mm 6 m/s 764 mmHg 65%
18:00 +17°C° 0 mm 6 m/s 764 mmHg 68%
19:00 +17°C° 0 mm 6 m/s 764 mmHg 70%
20:00 +16°C° 0 mm 6 m/s 765 mmHg 73%
21:00 +16°C° 0 mm 6 m/s 764 mmHg 73%
22:00 +16°C° 0 mm 6 m/s 764 mmHg 74%
23:00 +16°C° 0 mm 6 m/s 764 mmHg 75%

Demain, 28 Octobre, Mercredi

Heure Température Précipitation Vent Pression Humidité
00:00 +16°C° 0 mm 6 m/s 764 mmHg 75%
01:00 +15°C° 0 mm 6 m/s 764 mmHg 76%
02:00 +15°C° 0 mm 6 m/s 764 mmHg 77%
03:00 +15°C° 0 mm 5 m/s 764 mmHg 76%
04:00 +14°C° 0 mm 5 m/s 764 mmHg 75%
05:00 +14°C° 0 mm 5 m/s 764 mmHg 74%
06:00 +15°C° 0 mm 5 m/s 764 mmHg 69%
07:00 +17°C° 0 mm 5 m/s 764 mmHg 64%
08:00 +19°C° 0 mm 6 m/s 765 mmHg 59%
09:00 +20°C° 0 mm 6 m/s 765 mmHg 55%
10:00 +21°C° 0 mm 6 m/s 765 mmHg 51%
11:00 +22°C° 0 mm 7 m/s 765 mmHg 47%
12:00 +22°C° 0 mm 7 m/s 764 mmHg 49%
13:00 +22°C° 0 mm 7 m/s 764 mmHg 51%
14:00 +22°C° 0 mm 7 m/s 764 mmHg 53%
15:00 +21°C° 0 mm 7 m/s 764 mmHg 58%
16:00 +20°C° 0 mm 7 m/s 764 mmHg 64%
17:00 +18°C° 0 mm 7 m/s 764 mmHg 69%
18:00 +18°C° 0 mm 7 m/s 764 mmHg 73%
19:00 +19°C° 0 mm 6 m/s 764 mmHg 76%
20:00 +17°C° 0 mm 6 m/s 765 mmHg 79%
21:00 +17°C° 0 mm 6 m/s 765 mmHg 80%
22:00 +17°C° 0 mm 6 m/s 764 mmHg 81%
23:00 +16°C° 0 mm 6 m/s 764 mmHg 82%

Après-demain, 29 Octobre, Jeudi

Heure Température Précipitation Vent Pression Humidité
00:00 +16°C° 0 mm 6 m/s 764 mmHg 84%
01:00 +16°C° 0 mm 6 m/s 764 mmHg 85%
02:00 +16°C° 0 mm 6 m/s 764 mmHg 87%
03:00 +16°C° 0 mm 5 m/s 763 mmHg 86%
04:00 +16°C° 0 mm 5 m/s 763 mmHg 85%
05:00 +17°C° 0 mm 4 m/s 763 mmHg 84%
06:00 +18°C° 0 mm 4 m/s 764 mmHg 76%
07:00 +19°C° 0 mm 4 m/s 764 mmHg 68%
08:00 +20°C° 0 mm 3 m/s 764 mmHg 60%
09:00 +22°C° 0 mm 4 m/s 764 mmHg 55%
10:00 +23°C° 0 mm 4 m/s 764 mmHg 51%
11:00 +26°C° 0 mm 4 m/s 764 mmHg 46%
12:00 +26°C° 0 mm 5 m/s 763 mmHg 46%
13:00 +26°C° 0 mm 5 m/s 763 mmHg 47%
14:00 +26°C° 0 mm 5 m/s 763 mmHg 48%
15:00 +23°C° 0 mm 4 m/s 763 mmHg 54%
16:00 +22°C° 0 mm 4 m/s 763 mmHg 60%
17:00 +21°C° 0 mm 4 m/s 763 mmHg 66%
18:00 +20°C° 0 mm 4 m/s 763 mmHg 68%
19:00 +19°C° 0 mm 4 m/s 764 mmHg 70%
20:00 +19°C° 0 mm 3 m/s 764 mmHg 71%
21:00 +19°C° 0 mm 3 m/s 764 mmHg 71%
22:00 +18°C° 0 mm 2 m/s 764 mmHg 71%
23:00 +18°C° 0 mm 2 m/s 763 mmHg 71%

30 Octobre, Vendredi

Heure Température Précipitation Vent Pression Humidité
00:00 +18°C° 0 mm 2 m/s 763 mmHg 72%
01:00 +19°C° 0 mm 1 m/s 763 mmHg 74%
02:00 +19°C° 0 mm 1 m/s 763 mmHg 75%
03:00 +19°C° 0 mm 1 m/s 763 mmHg 75%
04:00 +18°C° 0 mm 1 m/s 763 mmHg 75%
05:00 +18°C° 0 mm 1 m/s 763 mmHg 75%
06:00 +20°C° 0 mm 1 m/s 763 mmHg 67%
07:00 +22°C° 0 mm 1 m/s 764 mmHg 58%
08:00 +23°C° 0 mm 1 m/s 764 mmHg 50%
09:00 +25°C° 0 mm 1 m/s 764 mmHg 45%
10:00 +26°C° 0 mm 1 m/s 764 mmHg 40%
11:00 +28°C° 0 mm 2 m/s 764 mmHg 35%
12:00 +27°C° 0 mm 2 m/s 763 mmHg 37%
13:00 +27°C° 0 mm 3 m/s 763 mmHg 39%
14:00 +27°C° 0 mm 3 m/s 763 mmHg 41%
15:00 +25°C° 0 mm 3 m/s 763 mmHg 48%
16:00 +24°C° 0 mm 3 m/s 764 mmHg 56%
17:00 +22°C° 0 mm 3 m/s 764 mmHg 63%
18:00 +21°C° 0 mm 2 m/s 764 mmHg 66%
19:00 +20°C° 0 mm 2 m/s 765 mmHg 69%
20:00 +20°C° 0 mm 2 m/s 765 mmHg 72%
21:00 +20°C° 0 mm 1 m/s 765 mmHg 73%
22:00 +20°C° 0 mm 1 m/s 765 mmHg 75%
23:00 +20°C° 0 mm 1 m/s 765 mmHg 77%

31 Octobre, Samedi

Heure Température Précipitation Vent Pression Humidité
00:00 +20°C° 0 mm 1 m/s 765 mmHg 77%
01:00 +19°C° 0 mm 1 m/s 765 mmHg 78%
02:00 +19°C° 0 mm 1 m/s 765 mmHg 79%
03:00 +19°C° 0 mm 1 m/s 765 mmHg 80%
04:00 +18°C° 0 mm 1 m/s 765 mmHg 81%
05:00 +18°C° 0 mm 1 m/s 765 mmHg 82%
06:00 +20°C° 0 mm 1 m/s 765 mmHg 77%
07:00 +21°C° 0 mm 1 m/s 765 mmHg 71%
08:00 +23°C° 0 mm 2 m/s 765 mmHg 66%
09:00 +24°C° 0 mm 2 m/s 765 mmHg 64%
10:00 +25°C° 0 mm 3 m/s 766 mmHg 62%
11:00 +26°C° 0 mm 4 m/s 766 mmHg 60%
12:00 +26°C° 0 mm 4 m/s 765 mmHg 61%
13:00 +25°C° 0 mm 4 m/s 765 mmHg 62%
14:00 +25°C° 0 mm 5 m/s 765 mmHg 64%
15:00 +23°C° 0 mm 5 m/s 765 mmHg 71%
16:00 +22°C° 0 mm 4 m/s 765 mmHg 77%
17:00 +21°C° 0 mm 4 m/s 765 mmHg 84%
18:00 +20°C° 0 mm 4 m/s 765 mmHg 87%
19:00 +20°C° 0 mm 4 m/s 765 mmHg 89%
20:00 +20°C° 0 mm 4 m/s 765 mmHg 91%
21:00 +19°C° 0 mm 4 m/s 765 mmHg 92%
22:00 +19°C° 0 mm 4 m/s 765 mmHg 93%
23:00 +19°C° 0 mm 4 m/s 765 mmHg 94%

1 Novembre, Dimanche

Heure Température Précipitation Vent Pression Humidité
00:00 +19°C° 0 mm 3 m/s 765 mmHg 94%
01:00 +18°C° 0 mm 3 m/s 765 mmHg 95%
02:00 +18°C° 0 mm 2 m/s 764 mmHg 95%
03:00 +18°C° 0 mm 2 m/s 764 mmHg 95%
04:00 +17°C° 0 mm 2 m/s 764 mmHg 96%
05:00 +17°C° 0 mm 2 m/s 764 mmHg 96%
06:00 +18°C° 0 mm 2 m/s 764 mmHg 91%
07:00 +19°C° 0 mm 3 m/s 764 mmHg 87%
08:00 +21°C° 0 mm 3 m/s 764 mmHg 82%
09:00 +22°C° 0 mm 3 m/s 764 mmHg 74%
10:00 +24°C° 0 mm 3 m/s 764 mmHg 65%
11:00 +26°C° 0 mm 3 m/s 764 mmHg 56%
12:00 +25°C° 0 mm 4 m/s 763 mmHg 57%
13:00 +25°C° 0 mm 4 m/s 763 mmHg 59%
14:00 +25°C° 0 mm 4 m/s 762 mmHg 60%
15:00 +23°C° 0 mm 4 m/s 762 mmHg 67%
16:00 +22°C° 0 mm 4 m/s 762 mmHg 74%
17:00 +20°C° 0 mm 3 m/s 762 mmHg 81%
18:00 +20°C° 0 mm 3 m/s 762 mmHg 84%
19:00 +19°C° 0 mm 2 m/s 762 mmHg 87%
20:00 +19°C° 0 mm 2 m/s 762 mmHg 89%
21:00 +19°C° 0 mm 2 m/s 762 mmHg 89%
22:00 +19°C° 0 mm 1 m/s 762 mmHg 90%
23:00 +19°C° 0 mm 1 m/s 762 mmHg 90%
Voir plus

Nous avons besoin de votre consentement

Meteoprog et ses fournisseurs de services peuvent stocker et accéder à des données personnelles telles que des cookies, des identifiants d'appareils ou d'autres technologies similaires sur votre appareil et traiter ces données pour personnaliser le contenu et les publicités, ainsi que pour fournir des fonctionnalités de médias sociaux et analyser le trafic.

  • Stocker et/ou accéder à des informations sur votre appareil

    Des cookies, des identifiants d'appareils ou d'autres informations peuvent être stockés ou accessibles sur votre appareil aux fins indiquées ci-dessus.

  • Annonces et contenus personnalisés, mesure des annonces et des contenus, connaissance de l'audience et développement de produits

    Les annonces et le contenu peuvent être personnalisés en fonction d'un profil. D'autres données peuvent être ajoutées pour mieux personnaliser les annonces et le contenu. Les performances des publicités et du contenu peuvent être mesurées. Il est possible d'obtenir des informations sur le public qui a vu les publicités et le contenu. Ces données peuvent être utilisées pour développer ou améliorer l'expérience de l'utilisateur, les systèmes et les logiciels.

En cliquant sur "J'accepte", vous autorisez l'utilisation de cookies, des identifiants d'appareils, des balises web ou d'autres technologies similaires. Vos paramètres peuvent être modifiés dans le navigateur de votre appareil.

Dans certains cas, des intérêts légitimes peuvent être invoqués plutôt qu'un consentement. Vous pouvez en savoir plus à ce sujet dans notre Politique de confidentialité et de cookies.